SCP
0 0 0 0 0 0 0 0 0 0 0 0 0 0 0 0 0 0 0 0 0 0 0 0 0 0 0 0 0 0 0 0 0 0 0 0 0 0 0 0 0 0 0
0 0 0 0 0 0 0 0 0 0 0 0 0 0 0 0 0 0 0 0 0 0 0 0 0 0 0 0 0 0 0 0 0 0 0 0 0 0 0 0 0 0 0
0 0 0 0 0 0 0 0 0 0 0 0 0 0 0 0 0 0 0 0 0 0 0 0 0 0 0 0 0 0 0 0 0 0 0 0 0 0 0 0 0 0 0
0 0 0 0 0 0 0 0 0 0 0 0 0 0 0 0 0 0 0 0 0 0 0 0 0 0 0 0 0 0 0 0 0 0 0 0 0 0 0 0 0 0 0
0 0 0 0 0 0 0 0 0 0 0 0 0 0 0 0 0 0 0 0 0 0 0 0 0 0 0 0 0 0 0 0 0 0 0 0 0 0 0 0 0 0 0
0 0 0 0 0 0 0 0 0 0 0 0 0 0 0 0 0 0 0 0 0 0 0 0 0 0 0 0 0 0 0 0 0 0 0 0 0 0 0 0 0 0 0
0 0 0 0 0 0 0 0 0 0 0 0 0 0 0 0 0 0 0 0 0 0 0 0 0 0 0 0 0 0 0 0 0 0 0 0 0 0 0 0 0 0 0
0 0 0 0 0 0 0 0 0 0 0 0 0 0 0 0 0 0 0 0 0 0 0 0 0 0 0 0 0 0 0 0 0 0 0 0 0 0 0 0 0 0 0
0 0 0 0 0 0 0 0 0 0 0 0 0 0 0 0 0 0 0 0 0 0 0 0 0 0 0 0 0 0 0 0 0 0 0 0 0 0 0 0 0 0 0
0 0 0 0 0 0 0 0 0 0 0 0 0 0 0 0 0 0 0 0 0 0 0 0 0 0 0 0 0 0 0 0 0 0 0 0 0 0 0 0 0 0 0
0 0 0 0 0 0 0 0 0 0 0 0 0 0 0 0 0 0 0 0 0 0 0 0 0 0 0 0 0 0 0 0 0 0 0 0 0 0 0 0 0 0 0
0 0 0 0 0 0 0 0 0 0 0 0 0 0 0 0 0 0 0 0 0 0 0 0 0 0 0 0 0 0 0 0 0 0 0 0 0 0 0 0 0 0 0
0 0 0 0 0 0 0 0 0 0 0 0 0 0 0 0 0 0 0 0 0 0 0 0 0 0 0 0 0 0 0 0 0 0 0 0 0 0 0 0 0 0 0
0 0 0 0 0 0 0 0 0 0 0 0 0 0 0 0 0 0 0 0 0 0 0 0 0 0 0 0 0 0 0 0 0 0 0 0 0 0 0 0 0 0 0
0 0 0 0 0 0 0 0 0 0 0 0 0 0 0 0 0 0 0 0 0 0 0 0 0 0 0 0 0 0 0 0 0 0 0 0 0 0 0 0 0 0 0
0 0 0 0 0 0 0 0 0 0 0 0 0 0 0 0 0 0 0 0 0 0 0 0 0 0 0 0 0 0 0 0 0 0 0 0 0 0 0 0 0 0 0
0 0 0 0 0 0 0 0 0 0 0 0 0 0 0 0 0 0 0 0 0 0 0 0 0 0 0 0 0 0 0 0 0 0 0 0 0 0 0 0 0 0 0
0 0 0 0 0 0 0 0 0 0 0 0 0 0 0 0 0 0 0 0 0 0 0 0 0 0 0 0 0 0 0 0 0 0 0 0 0 0 0 0 0 0 0
0 0 0 0 0 0 0 0 0 0 0 0 0 0 0 -0 -0 -0 0 0 0 0 0 0 0 0 0 0 0 0 0 0 0 0 0 0 0 0 0 0 0 0 0
0 0 0 0 0 0 0 0 0 0 0 0 0 0 0 0 0 0 0 0 0 0 0 0 0 0 0 0 0 0 0 0 0 0 0 0 0 0 0 0 0 0 0
0 0 0 0 0 0 0 0 0 0 0 0 0 0 0 0 0 0 0 0 0 0 0 0 0 0 0 0 0 0 0 0 0 0 0 0 0 0 0 0 0 0 0
0 0 0 0 0 0 0 0 0 0 0 0 0 0 0 0 0 0 0 0 0 0 0 0 0 0 0 0 0 0 0 0 0 0 0 0 0 0 0 0 0 0 0
0 0 0 0 0 0 0 0 0 0 0 0 0 0 0 0 0 0 0 0 0 0 0 0 0 0 0 0 0 0 0 0 0 0 0 0 0 0 0 0 0 0 0
0 0 0 0 0 0 0 0 0 0 0 0 0 0 0 0 0 0 0 0 0 0 0 0 0 0 0 0 0 0 0 0 0 0 0 0 0 0 0 0 0 0 0
0 0 0 0 0 0 0 0 0 0 0 0 0 0 0 0 0 0 0 0 0 0 0 0 0 0 0 0 0 0 0 0 0 0 0 0 0 0 0 0 0 0 0
0 0 0 0 0 0 0 0 0 0 0 0 0 0 0 0 0 0 0 0 0 0 0 0 0 0 0 0 0 0 0 0 0 0 0 0 0 0 0 0 0 0 0
Wind_Speed_500mb
66 71 77 74 74 73 78 81 81 90 101 108 105 110 116 123 125 123 125 124 127 130 130 126 123 114 112 106 98 92 89 85 84 80 70 65 64 62 60 55 53 54 54
67 73 78 82 88 87 85 85 86 89 93 107 113 111 113 122 124 125 126 126 124 122 123 117 119 110 107 104 99 97 92 89 86 87 78 76 68 70 63 58 56 67 55
64 70 77 81 86 95 84 86 83 85 92 101 113 117 115 119 127 123 123 123 121 119 117 120 124 112 109 106 102 98 93 91 82 85 83 77 68 65 56 55 58 61 54
69 70 74 79 82 80 87 86 85 87 92 99 112 119 120 119 128 130 124 121 123 121 121 114 116 116 115 109 104 99 92 89 86 83 85 79 67 64 59 54 53 42 46
76 79 79 77 79 88 92 91 91 93 93 99 108 113 118 120 128 131 128 128 121 119 126 125 117 120 119 106 97 95 91 89 81 85 76 75 64 62 50 53 51 42 42
73 81 84 86 88 95 96 96 95 96 90 90 105 111 116 121 127 129 125 125 120 114 126 122 121 115 110 94 85 78 76 79 78 81 77 80 67 56 49 51 40 42 49
75 81 84 84 86 91 93 90 94 94 89 89 100 110 117 120 122 125 124 120 116 119 121 121 117 109 87 80 74 68 64 67 70 70 67 72 51 48 47 41 41 42 42
80 82 83 81 92 97 101 102 101 95 91 89 95 106 110 116 114 111 117 116 116 121 122 117 110 93 78 75 67 68 66 73 63 56 55 48 47 40 44 41 32 33 32
77 81 80 86 99 110 107 101 100 93 86 86 89 97 106 107 109 112 109 116 122 122 117 105 98 78 72 76 72 69 69 66 64 57 43 38 39 40 34 29 25 25 28
82 83 92 98 104 103 92 90 89 81 74 75 83 91 97 101 103 108 111 118 121 119 101 104 73 70 74 77 78 66 67 61 50 41 39 39 37 34 31 28 25 23 24
81 90 95 87 82 79 79 76 74 66 67 72 80 89 97 103 98 104 110 110 111 109 87 70 71 65 69 67 61 57 48 43 42 39 36 33 32 28 26 21 18 17 17
82 83 81 75 75 74 68 68 68 65 71 71 80 87 96 101 108 108 102 109 108 88 86 73 59 62 55 59 53 52 47 43 45 42 35 32 30 23 20 15 15 16 16
83 80 73 67 71 69 63 64 65 63 69 70 70 73 69 67 53 59 70 80 74 65 61 54 67 62 56 49 48 45 40 41 38 34 33 32 26 21 18 16 15 14 15
77 72 63 63 66 65 61 56 52 53 49 55 56 50 45 41 35 38 41 47 47 68 72 64 59 52 52 50 44 40 39 36 31 30 30 30 25 21 17 15 14 13 12
68 59 56 57 54 50 44 34 34 33 37 41 42 47 49 51 51 54 56 59 62 60 65 67 65 54 47 41 39 36 34 33 29 31 30 24 21 18 17 15 13 11 10
63 51 48 49 42 36 29 16 7 9 7 11 26 32 33 34 39 41 44 50 53 52 54 54 51 46 40 41 41 39 34 31 30 27 24 22 21 18 13 10 11 10 10
56 47 46 42 40 30 23 15 16 14 14 19 20 23 30 42 41 41 43 45 43 43 43 54 52 49 48 44 40 37 37 34 29 26 22 17 13 10 8 10 10 9 10
50 44 44 39 38 34 28 23 20 29 36 35 30 35 40 42 42 42 40 40 46 43 48 52 50 45 44 41 40 37 34 30 26 20 15 12 9 8 10 11 9 8 11
47 45 44 40 38 39 32 29 32 40 47 50 49 44 43 40 39 39 37 38 44 44 40 40 39 40 39 38 35 32 27 23 18 16 14 13 13 14 11 8 9 10 12
47 45 43 42 39 42 38 37 42 51 55 52 48 45 44 43 43 44 38 36 34 36 39 40 40 37 34 31 27 23 20 18 17 16 15 14 13 10 9 7 9 12 15
42 45 46 46 44 43 42 41 42 46 48 48 46 44 39 37 40 37 36 36 36 34 33 30 30 27 25 23 22 21 19 19 17 15 13 12 11 9 7 10 13 16 16
40 45 47 47 48 43 40 39 42 47 47 46 46 43 37 35 35 38 37 33 30 26 23 21 20 19 17 17 17 17 18 16 16 14 12 11 9 9 10 13 16 18 20
36 42 44 43 42 42 43 44 49 50 46 40 39 38 36 37 34 29 23 18 17 17 15 15 13 13 15 16 17 17 16 15 15 13 12 11 10 12 15 17 18 20 21
34 39 42 43 44 47 53 54 50 46 41 40 38 31 28 26 23 20 19 15 14 14 13 12 13 16 17 17 16 15 13 13 13 12 12 13 14 15 18 20 20 21 19
31 37 42 48 56 58 58 54 47 44 39 35 31 28 26 22 18 14 11 8 6 9 13 17 16 16 15 14 14 14 15 16 17 17 17 18 18 19 19 20 22 21 21
39 49 52 51 48 46 45 45 42 39 37 33 29 26 22 18 14 13 14 14 16 17 16 16 16 16 16 17 18 20 21 22 22 23 23 22 22 23 22 22 24 25 24
Wind_Direction_500mb
295 292 290 284 280 275 270 270 267 265 261 258 251 248 250 251 248 247 245 240 239 241 242 242 241 239 239 240 241 243 243 243 242 251 254 257 263 265 267 268 270 270 271
298 293 286 281 280 282 277 273 273 270 269 260 255 247 247 249 247 242 243 240 235 233 232 233 238 233 234 236 237 240 243 245 243 248 252 253 261 256 266 264 268 271 261
307 301 290 282 277 284 281 282 279 276 271 265 254 248 244 245 247 242 238 236 235 234 232 231 234 229 229 231 235 237 239 239 245 248 245 253 255 259 262 264 266 265 257
309 307 299 289 286 284 287 287 282 280 275 266 256 249 246 242 244 246 238 235 236 237 233 231 232 233 233 233 234 233 238 239 244 246 247 248 255 253 249 257 261 256 266
310 307 303 299 289 287 287 288 287 284 277 269 258 249 246 242 243 245 244 235 238 240 233 234 237 241 242 239 237 235 237 241 241 243 242 249 252 249 251 260 255 267 260
305 307 303 301 299 291 290 287 284 281 276 268 257 250 246 243 245 245 242 243 242 238 235 231 231 236 238 242 237 239 240 240 238 242 241 254 240 245 257 248 246 259 273
296 301 301 301 301 300 295 293 290 284 277 266 257 253 250 249 248 248 243 243 243 239 234 230 229 234 234 234 231 232 234 237 245 244 251 242 247 256 248 249 265 275 265
297 304 306 301 300 301 297 293 292 286 275 265 259 257 254 253 251 250 248 243 244 240 234 234 234 228 223 224 223 222 228 237 234 237 234 245 242 242 247 253 250 254 257
303 306 305 300 298 299 296 291 291 286 276 264 261 260 258 256 253 251 248 244 239 233 230 230 225 219 219 220 217 223 223 229 229 224 224 231 241 249 245 241 242 242 245
309 306 304 302 299 297 293 292 290 282 269 264 263 263 261 257 254 249 248 239 226 223 226 221 212 212 214 219 211 219 225 214 212 223 235 238 229 230 241 238 237 242 244
308 309 309 306 304 301 298 295 291 280 270 267 265 266 260 260 257 253 240 232 229 220 204 215 208 207 209 201 207 202 208 217 216 214 205 208 208 213 223 232 247 246 253
308 309 310 312 312 308 304 299 291 280 277 275 272 266 255 249 242 239 231 232 221 209 197 193 185 192 184 180 187 209 195 191 194 192 190 197 207 212 218 227 236 244 250
309 308 312 316 312 308 307 309 307 292 281 275 266 252 242 231 223 215 219 228 199 200 193 206 176 173 179 178 173 176 180 186 188 189 193 198 197 203 212 219 229 238 246
309 310 314 315 308 305 304 305 298 289 277 262 246 220 183 163 151 153 157 161 158 153 159 167 175 166 161 160 166 168 176 185 184 193 192 193 188 191 196 207 218 221 242
308 311 312 309 307 300 296 295 308 298 276 245 211 186 174 160 162 170 171 171 172 163 153 151 154 154 154 157 161 166 168 171 175 183 183 176 181 192 194 206 220 226 240
302 305 303 300 296 287 280 273 273 328 293 207 195 180 156 149 144 149 150 148 150 152 152 152 151 154 160 162 162 159 162 167 172 174 174 176 182 190 197 211 234 247 263
292 295 291 290 282 266 250 228 164 148 148 145 150 156 157 144 143 142 142 144 148 155 162 153 155 157 156 157 158 162 162 166 168 172 174 170 175 185 211 230 244 265 279
284 284 281 282 272 253 231 212 181 166 154 134 132 144 146 144 144 146 152 157 151 155 156 154 153 156 159 162 162 163 162 163 165 165 165 173 187 213 227 237 255 282 306
275 275 274 270 263 245 229 207 188 170 160 156 155 159 157 161 159 151 149 155 149 148 151 153 156 161 161 159 160 162 165 168 173 180 185 199 214 223 233 252 278 290 293
268 266 265 260 251 235 219 204 187 176 166 160 160 154 150 150 144 143 145 145 146 150 157 158 155 157 160 161 164 169 176 182 191 198 201 207 213 222 233 254 270 283 288
264 260 254 247 237 227 214 200 188 176 164 155 147 144 144 147 139 139 142 148 150 150 150 152 157 165 170 173 179 184 188 194 199 200 197 202 211 222 248 267 279 283 293
259 254 247 236 228 214 205 193 183 173 163 154 144 143 148 152 149 146 141 142 146 148 154 165 173 176 179 187 192 195 197 193 194 194 195 209 228 253 272 281 287 298 299
252 246 237 226 214 202 187 177 167 159 152 147 142 142 138 131 123 124 129 143 162 176 177 182 186 194 199 201 197 194 193 192 199 207 220 239 261 276 283 289 296 294 293
235 228 220 206 190 176 162 154 145 137 134 129 132 133 140 151 144 152 158 161 190 194 194 194 203 207 206 203 199 198 204 214 227 239 254 265 273 283 290 291 287 285 288
215 204 189 169 156 148 141 139 139 141 147 156 157 146 135 143 155 164 168 172 186 213 222 215 205 204 205 210 218 227 236 246 255 264 270 276 280 280 279 277 278 280 280
154 150 146 143 143 144 149 152 154 152 156 155 153 158 162 164 179 197 207 220 223 216 212 211 214 218 226 234 242 249 255 262 269 274 276 278 276 273 271 271 273 273 274
Wind_Speed_850mb
66 71 77 74 74 73 78 81 81 90 101 108 105 110 116 123 125 123 125 124 127 130 130 126 123 114 112 106 98 92 89 85 84 80 70 65 64 62 60 55 53 54 54
67 73 78 82 88 87 85 85 86 89 93 107 113 111 113 122 124 125 126 126 124 122 123 117 119 110 107 104 99 97 92 89 86 87 78 76 68 70 63 58 56 67 55
64 70 77 81 86 95 84 86 83 85 92 101 113 117 115 119 127 123 123 123 121 119 117 120 124 112 109 106 102 98 93 91 82 85 83 77 68 65 56 55 58 61 54
69 70 74 79 82 80 87 86 85 87 92 99 112 119 120 119 128 130 124 121 123 121 121 114 116 116 115 109 104 99 92 89 86 83 85 79 67 64 59 54 53 42 46
76 79 79 77 79 88 92 91 91 93 93 99 108 113 118 120 128 131 128 128 121 119 126 125 117 120 119 106 97 95 91 89 81 85 76 75 64 62 50 53 51 42 42
73 81 84 86 88 95 96 96 95 96 90 90 105 111 116 121 127 129 125 125 120 114 126 122 121 115 110 94 85 78 76 79 78 81 77 80 67 56 49 51 40 42 49
75 81 84 84 86 91 93 90 94 94 89 89 100 110 117 120 122 125 124 120 116 119 121 121 117 109 87 80 74 68 64 67 70 70 67 72 51 48 47 41 41 42 42
80 82 83 81 92 97 101 102 101 95 91 89 95 106 110 116 114 111 117 116 116 121 122 117 110 93 78 75 67 68 66 73 63 56 55 48 47 40 44 41 32 33 32
77 81 80 86 99 110 107 101 100 93 86 86 89 97 106 107 109 112 109 116 122 122 117 105 98 78 72 76 72 69 69 66 64 57 43 38 39 40 34 29 25 25 28
82 83 92 98 104 103 92 90 89 81 74 75 83 91 97 101 103 108 111 118 121 119 101 104 73 70 74 77 78 66 67 61 50 41 39 39 37 34 31 28 25 23 24
81 90 95 87 82 79 79 76 74 66 67 72 80 89 97 103 98 104 110 110 111 109 87 70 71 65 69 67 61 57 48 43 42 39 36 33 32 28 26 21 18 17 17
82 83 81 75 75 74 68 68 68 65 71 71 80 87 96 101 108 108 102 109 108 88 86 73 59 62 55 59 53 52 47 43 45 42 35 32 30 23 20 15 15 16 16
83 80 73 67 71 69 63 64 65 63 69 70 70 73 69 67 53 59 70 80 74 65 61 54 67 62 56 49 48 45 40 41 38 34 33 32 26 21 18 16 15 14 15
77 72 63 63 66 65 61 56 52 53 49 55 56 50 45 41 35 38 41 47 47 68 72 64 59 52 52 50 44 40 39 36 31 30 30 30 25 21 17 15 14 13 12
68 59 56 57 54 50 44 34 34 33 37 41 42 47 49 51 51 54 56 59 62 60 65 67 65 54 47 41 39 36 34 33 29 31 30 24 21 18 17 15 13 11 10
63 51 48 49 42 36 29 16 7 9 7 11 26 32 33 34 39 41 44 50 53 52 54 54 51 46 40 41 41 39 34 31 30 27 24 22 21 18 13 10 11 10 10
56 47 46 42 40 30 23 15 16 14 14 19 20 23 30 42 41 41 43 45 43 43 43 54 52 49 48 44 40 37 37 34 29 26 22 17 13 10 8 10 10 9 10
50 44 44 39 38 34 28 23 20 29 36 35 30 35 40 42 42 42 40 40 46 43 48 52 50 45 44 41 40 37 34 30 26 20 15 12 9 8 10 11 9 8 11
47 45 44 40 38 39 32 29 32 40 47 50 49 44 43 40 39 39 37 38 44 44 40 40 39 40 39 38 35 32 27 23 18 16 14 13 13 14 11 8 9 10 12
47 45 43 42 39 42 38 37 42 51 55 52 48 45 44 43 43 44 38 36 34 36 39 40 40 37 34 31 27 23 20 18 17 16 15 14 13 10 9 7 9 12 15
42 45 46 46 44 43 42 41 42 46 48 48 46 44 39 37 40 37 36 36 36 34 33 30 30 27 25 23 22 21 19 19 17 15 13 12 11 9 7 10 13 16 16
40 45 47 47 48 43 40 39 42 47 47 46 46 43 37 35 35 38 37 33 30 26 23 21 20 19 17 17 17 17 18 16 16 14 12 11 9 9 10 13 16 18 20
36 42 44 43 42 42 43 44 49 50 46 40 39 38 36 37 34 29 23 18 17 17 15 15 13 13 15 16 17 17 16 15 15 13 12 11 10 12 15 17 18 20 21
34 39 42 43 44 47 53 54 50 46 41 40 38 31 28 26 23 20 19 15 14 14 13 12 13 16 17 17 16 15 13 13 13 12 12 13 14 15 18 20 20 21 19
31 37 42 48 56 58 58 54 47 44 39 35 31 28 26 22 18 14 11 8 6 9 13 17 16 16 15 14 14 14 15 16 17 17 17 18 18 19 19 20 22 21 21
39 49 52 51 48 46 45 45 42 39 37 33 29 26 22 18 14 13 14 14 16 17 16 16 16 16 16 17 18 20 21 22 22 23 23 22 22 23 22 22 24 25 24
Wind_Direction_850mb
295 292 290 284 280 275 270 270 267 265 261 258 251 248 250 251 248 247 245 240 239 241 242 242 241 239 239 240 241 243 243 243 242 251 254 257 263 265 267 268 270 270 271
298 293 286 281 280 282 277 273 273 270 269 260 255 247 247 249 247 242 243 240 235 233 232 233 238 233 234 236 237 240 243 245 243 248 252 253 261 256 266 264 268 271 261
307 301 290 282 277 284 281 282 279 276 271 265 254 248 244 245 247 242 238 236 235 234 232 231 234 229 229 231 235 237 239 239 245 248 245 253 255 259 262 264 266 265 257
309 307 299 289 286 284 287 287 282 280 275 266 256 249 246 242 244 246 238 235 236 237 233 231 232 233 233 233 234 233 238 239 244 246 247 248 255 253 249 257 261 256 266
310 307 303 299 289 287 287 288 287 284 277 269 258 249 246 242 243 245 244 235 238 240 233 234 237 241 242 239 237 235 237 241 241 243 242 249 252 249 251 260 255 267 260
305 307 303 301 299 291 290 287 284 281 276 268 257 250 246 243 245 245 242 243 242 238 235 231 231 236 238 242 237 239 240 240 238 242 241 254 240 245 257 248 246 259 273
296 301 301 301 301 300 295 293 290 284 277 266 257 253 250 249 248 248 243 243 243 239 234 230 229 234 234 234 231 232 234 237 245 244 251 242 247 256 248 249 265 275 265
297 304 306 301 300 301 297 293 292 286 275 265 259 257 254 253 251 250 248 243 244 240 234 234 234 228 223 224 223 222 228 237 234 237 234 245 242 242 247 253 250 254 257
303 306 305 300 298 299 296 291 291 286 276 264 261 260 258 256 253 251 248 244 239 233 230 230 225 219 219 220 217 223 223 229 229 224 224 231 241 249 245 241 242 242 245
309 306 304 302 299 297 293 292 290 282 269 264 263 263 261 257 254 249 248 239 226 223 226 221 212 212 214 219 211 219 225 214 212 223 235 238 229 230 241 238 237 242 244
308 309 309 306 304 301 298 295 291 280 270 267 265 266 260 260 257 253 240 232 229 220 204 215 208 207 209 201 207 202 208 217 216 214 205 208 208 213 223 232 247 246 253
308 309 310 312 312 308 304 299 291 280 277 275 272 266 255 249 242 239 231 232 221 209 197 193 185 192 184 180 187 209 195 191 194 192 190 197 207 212 218 227 236 244 250
309 308 312 316 312 308 307 309 307 292 281 275 266 252 242 231 223 215 219 228 199 200 193 206 176 173 179 178 173 176 180 186 188 189 193 198 197 203 212 219 229 238 246
309 310 314 315 308 305 304 305 298 289 277 262 246 220 183 163 151 153 157 161 158 153 159 167 175 166 161 160 166 168 176 185 184 193 192 193 188 191 196 207 218 221 242
308 311 312 309 307 300 296 295 308 298 276 245 211 186 174 160 162 170 171 171 172 163 153 151 154 154 154 157 161 166 168 171 175 183 183 176 181 192 194 206 220 226 240
302 305 303 300 296 287 280 273 273 328 293 207 195 180 156 149 144 149 150 148 150 152 152 152 151 154 160 162 162 159 162 167 172 174 174 176 182 190 197 211 234 247 263
292 295 291 290 282 266 250 228 164 148 148 145 150 156 157 144 143 142 142 144 148 155 162 153 155 157 156 157 158 162 162 166 168 172 174 170 175 185 211 230 244 265 279
284 284 281 282 272 253 231 212 181 166 154 134 132 144 146 144 144 146 152 157 151 155 156 154 153 156 159 162 162 163 162 163 165 165 165 173 187 213 227 237 255 282 306
275 275 274 270 263 245 229 207 188 170 160 156 155 159 157 161 159 151 149 155 149 148 151 153 156 161 161 159 160 162 165 168 173 180 185 199 214 223 233 252 278 290 293
268 266 265 260 251 235 219 204 187 176 166 160 160 154 150 150 144 143 145 145 146 150 157 158 155 157 160 161 164 169 176 182 191 198 201 207 213 222 233 254 270 283 288
264 260 254 247 237 227 214 200 188 176 164 155 147 144 144 147 139 139 142 148 150 150 150 152 157 165 170 173 179 184 188 194 199 200 197 202 211 222 248 267 279 283 293
259 254 247 236 228 214 205 193 183 173 163 154 144 143 148 152 149 146 141 142 146 148 154 165 173 176 179 187 192 195 197 193 194 194 195 209 228 253 272 281 287 298 299
252 246 237 226 214 202 187 177 167 159 152 147 142 142 138 131 123 124 129 143 162 176 177 182 186 194 199 201 197 194 193 192 199 207 220 239 261 276 283 289 296 294 293
235 228 220 206 190 176 162 154 145 137 134 129 132 133 140 151 144 152 158 161 190 194 194 194 203 207 206 203 199 198 204 214 227 239 254 265 273 283 290 291 287 285 288
215 204 189 169 156 148 141 139 139 141 147 156 157 146 135 143 155 164 168 172 186 213 222 215 205 204 205 210 218 227 236 246 255 264 270 276 280 280 279 277 278 280 280
154 150 146 143 143 144 149 152 154 152 156 155 153 158 162 164 179 197 207 220 223 216 212 211 214 218 226 234 242 249 255 262 269 274 276 278 276 273 271 271 273 273 274